CZ-2F DEB (53363 NORAD) Tracking and Keplerian Element Data

This shows tracking and keplerian element data for the satellite.

Feedback or suggestion? Click here.




ElementValue
Catalog53363
NameCZ-2F DEB
Epoch Orbit387
Epoch Day241.73914742
Epoch Year2022
RAAN37.2629
Inclination50.0311
Eccentricity0.0157344
Argument of Perigee266.1407
Mean Anonmoly92.226
Mean Motion15.53591447
Decay Rate0.01015048
L11 53363U 22093G 22241.73914742 .01015048 00000+0 82423-2 0 9993
L22 53363 50.0311 37.2629 0157344 266.1407 92.2260 15.53591447 3874



Live tracking and technical data element details for CZ-2F DEB (NORAD 53363). CZ-2F DEB can be tracked NOW for your location showing map with azimuth and elevation plus other details from your city location.







IsCatalogInMostPopularTable: catalog: 53363, numindb: 9
Update: records affected: 1



GetName: 53363 CZ-2F DEB

Hit Count: updated at: Thu, 08 Dec 2022 19:12:10 GMT